Weather History for Shirley, NY

Change the Weather History Date:

Monday, February 4, 2013

  Actual Average (KISP) Record (KISP)
Temperature  
Mean Temperature 28 °F 31 °F  
Max Temperature 32 °F 39 °F 66 °F (1991)
Min Temperature 23 °F 24 °F 10 °F (1996)
Degree Days  
Heating Degree Days 38 34  
Month to date heating degree days 136  
Since 1 July heating degree days 3128  
Cooling Degree Days 0 0  
Month to date cooling degree days 0  
Year to date cooling degree days 0  
Moisture  
Dew Point 11 °F    
Average Humidity 53    
Maximum Humidity 77    
Minimum Humidity 35    
Precipitation  
Precipitation 0.00 in 0.11 in 0.81 in (1984)
Month to date precipitation 0.44  
Year to date precipitation 4.08  
Snow  
Snow 0.00 in 0.30 in 5.00 in (1995)
Month to date snowfall 1.0  
Since 1 July snowfall 13.6  
Snow Depth -    
Sea Level Pressure  
Sea Level Pressure 29.90 in    
Wind  
Wind Speed 8 mph (West)    
Max Wind Speed 21 mph    
Max Gust Speed 30 mph    
Visibility 10 miles    
Events      
T = Trace of Precipitation, MM = Missing Value Source: NWS Daily Summary

Daily Weather History Graph

Daily Weather History Graph

Search for Another Location

Airport:

Trip Planner

Search our weather history database for the weather conditions in past years. The results will help you decide how hot, cold, wet, or windy it might be!

Date:

Astronomy

Feb. 04, 2013 Rise Set
Actual Time 6:58 AM EST 5:12 PM EST
Civil Twilight 6:29 AM EST 5:41 PM EST
Nautical Twilight 5:57 AM EST 6:14 PM EST
Astronomical Twilight 5:24 AM EST 6:46 PM EST
Moon 1:31 AM EST (2/4) 11:33 AM EST (2/4)
Length of Visible Light 11h 12m
Length of Day
10h 14m
Last Quarter, 37% of the Moon is Illuminated
Feb 4
Last Quarter
Feb 10
New
Feb 17
First Quarter
Feb 25
Full
Mar 4
Last Quarter

Hourly Weather History & Observations

Time (EST) Temp. Windchill Dew Point Humidity Pressure Visibility Wind Dir Wind Speed Gust Speed Precip Events Conditions
12:56 AM 23.0 °F - 16.0 °F 74% 29.80 in 10.0 mi Calm Calm - N/A   Overcast
1:56 AM 23.0 °F - 16.0 °F 74% 29.80 in 10.0 mi Calm Calm - N/A   Mostly Cloudy
2:39 AM 23.0 °F - 15.8 °F 74% 29.79 in 10.0 mi Calm Calm - N/A   Overcast
2:56 AM 24.1 °F 17.0 °F 18.0 °F 77% 29.80 in 10.0 mi West 5.8 mph - N/A   Mostly Cloudy
3:05 AM 24.8 °F 17.9 °F 17.6 °F 74% 29.79 in 10.0 mi West 5.8 mph - N/A   Mostly Cloudy
3:56 AM 27.0 °F 16.7 °F 19.0 °F 72% 29.81 in 10.0 mi WNW 11.5 mph - N/A   Overcast
5:56 AM 27.0 °F 13.9 °F 14.0 °F 58% 29.87 in 10.0 mi NW 18.4 mph 26.5 mph N/A   Overcast
6:56 AM 25.0 °F 12.6 °F 10.9 °F 55% 29.89 in 10.0 mi NW 15.0 mph 21.9 mph N/A   Clear
7:56 AM 25.0 °F 11.7 °F 10.0 °F 53% 29.92 in 10.0 mi WNW 17.3 mph 28.8 mph N/A   Clear
8:56 AM 26.1 °F 12.0 °F 8.1 °F 47% 29.94 in 10.0 mi WNW 20.7 mph 29.9 mph N/A   Clear
9:56 AM 28.0 °F 15.3 °F 8.1 °F 43% 29.94 in 10.0 mi NW 18.4 mph 27.6 mph N/A   Clear
10:56 AM 28.9 °F 16.9 °F 9.0 °F 43% 29.95 in 10.0 mi West 17.3 mph 23.0 mph N/A   Clear
11:56 AM 30.0 °F 19.1 °F 8.1 °F 40% 29.92 in 10.0 mi NW 15.0 mph 25.3 mph N/A   Clear
12:56 PM 30.0 °F 19.5 °F 7.0 °F 38% 29.91 in 10.0 mi WNW 13.8 mph 24.2 mph N/A   Clear
1:56 PM 32.0 °F 22.1 °F 7.0 °F 35% 29.90 in 10.0 mi NW 13.8 mph 21.9 mph N/A   Clear
2:56 PM 30.9 °F 20.2 °F 8.1 °F 38% 29.91 in 10.0 mi West 15.0 mph 21.9 mph N/A   Scattered Clouds
3:56 PM 30.0 °F 18.3 °F 7.0 °F 38% 29.91 in 10.0 mi West 17.3 mph 25.3 mph N/A   Clear
4:56 PM 28.9 °F 18.2 °F 7.0 °F 40% 29.93 in 10.0 mi West 13.8 mph 21.9 mph N/A   Clear
5:56 PM 28.0 °F 18.6 °F 8.1 °F 43% 29.95 in 10.0 mi West 10.4 mph - N/A   Clear
6:56 PM 27.0 °F 20.5 °F 9.0 °F 47% 29.97 in 10.0 mi WSW 5.8 mph - N/A   Clear
8:56 PM 27.0 °F 21.6 °F 8.1 °F 45% 29.99 in 10.0 mi SSW 4.6 mph - N/A   Clear
9:56 PM 25.0 °F - 9.0 °F 51% 29.99 in 10.0 mi Calm Calm - N/A   Partly Cloudy
10:56 PM 26.1 °F - 10.0 °F 51% 29.99 in 10.0 mi Calm Calm - N/A   Overcast
11:56 PM 27.0 °F 21.6 °F 10.9 °F 51% 29.99 in 10.0 mi SSW 4.6 mph - N/A   Overcast